"2009-01-31 00:00:30",587876,7.432,190,6.303,1.209,9.86,103.4299,8.06,9.2,25.29,0,110.1,13.36,8.84,152.0
"2009-01-31 00:01:00",587877,8.29,194,5.45,1.316,11.78,103.4202,8.03,9.21,25.3,0,110.1,13.36,8.81,156.0
"2009-01-31 00:01:30",587878,9.04,198.2,2.97,0.786,12.5,103.4202,8.03,9.25,25.4,0,110.1,13.36,8.81,160.2
"2009-01-31 00:02:00",587879,8.67,195.5,5.4,1.109,11.7,103.4177,8.03,9.16,25.44,0,110.1,13.36,8.81,157.5
"2009-01-31 00:02:30",587880,7.357,191.9,5.916,1.3,9.15,103.4047,7.992,9.02,25.33,0,110.1,13.36,8.77,153.9
"2009-01-31 00:03:00",587881,7.025,188.3,5.218,0.953,7.896,103.3875,7.948,8.88,25.24,0,110.1,13.36,8.73,150.3
"2009-01-31 00:03:30",587882,7.43,191.2,6.494,1.343,9.63,103.3864,7.945,9.02,25.36,0,110.1,13.36,8.72,153.2
"2009-01-31 00:04:00",587883,7.472,187.6,5.511,1.086,9.06,103.3864,7.945,8.97,25.35,0,110.1,13.36,8.72,149.6
"2009-01-31 00:04:30",587884,8.79,199.8,6.85,1.011,11.97,103.3864,7.945,9.13,25.39,0,110.1,13.36,8.72,161.8
"2009-01-31 00:05:00",587885,9.36,201.9,4.505,0.517,12.88,103.3864,7.945,9.16,25.3,0,110.1,13.36,8.72,163.9
"2009-01-31 00:05:30",587886,7.898,197,6.406,1.454,9.94,103.3864,7.945,8.91,24.97,0,110.1,13.36,8.72,159.0
"2009-01-31 00:06:00",587887,6.97,189.3,3.405,0.757,7.366,103.3864,7.945,8.82,25.03,0,110.1,13.36,8.72,151.3
"2009-01-31 00:06:30",587888,8.09,193.6,6.432,1.345,9.62,103.3864,7.945,8.96,25.33,0,110.1,13.36,8.72,155.6
"2009-01-31 00:07:00",587889,7.532,191.8,6.055,1.022,9.28,103.3686,7.9,8.96,25.43,0,110.1,13.36,8.68,153.8
"2009-01-31 00:07:30",587890,8.66,198.4,7.109,1.329,11.35,103.3528,7.859,9.05,25.35,0,110.1,13.36,8.64,160.4
"2009-01-31 00:08:00",587891,9.59,205.3,4.363,0.561,13.07,103.3525,7.859,9.11,25.35,0,110.1,13.36,8.64,167.3
"2009-01-31 00:08:30",587892,9.17,202.3,6.25,0.868,12.26,103.3525,7.859,9.07,25.34,0,110.1,13.37,8.64,164.3
"2009-01-31 00:09:00",587893,7.76,199.4,5.728,1.242,9.28,103.3525,7.859,8.81,24.96,0,110.1,13.37,8.64,161.4
"2009-01-31 00:09:30",587894,7.919,201.5,6.127,1.237,9.47,103.3525,7.859,8.94,24.61,0,110.1,13.37,8.64,163.5
"2009-01-31 00:10:00",587895,6.901,195.7,1.399,0.081,7.748,103.3525,7.859,8.89,24.67,0,110.1,13.4,8.64,157.7
"2009-01-31 00:10:30",587896,8.33,200.1,7.216,1.299,10.16,103.3528,7.859,8.93,25.13,0,110.1,13.37,8.64,162.1
"2009-01-31 00:11:00",587897,9.37,206,4.701,0.705,12.66,103.3534,7.861,9.11,25.49,0,110,13.37,8.64,168.0
"2009-01-31 00:11:30",587898,9.03,203.2,6.197,1.154,12.02,103.3546,7.864,9.03,25.31,0,110.1,13.37,8.64,165.2
"2009-01-31 00:12:00",587899,8.61,202.3,6.12,1.178,11.38,103.3584,7.873,9.02,25.4,0,110,13.37,8.65,164.3
"2009-01-31 00:12:30",587900,7.678,198.3,5.03,0.973,8.57,103.3551,7.865,8.85,25.32,0,110,13.37,8.64,160.3
"2009-01-31 00:13:00",587901,8.15,200.9,6.763,1.208,9.28,103.354,7.862,8.81,25.2,0,110,13.37,8.64,162.9
"2009-01-31 00:13:30",587902,8.01,199,5.744,1.111,9.37,103.3556,7.866,8.93,25.32,0,110,13.37,8.65,161.0
"2009-01-31 00:14:00",587903,8.81,207.1,6.572,1.183,11.77,103.3583,7.873,9.02,25.17,0,110,13.38,8.65,169.1
"2009-01-31 00:14:30",587904,8.92,210.3,5.952,1.12,12.27,103.3702,7.904,9.03,24.81,0,110,13.38,8.68,172.3
"2009-01-31 00:15:00",587905,8.47,208,5.848,1.236,11.61,103.3794,7.927,9.02,24.83,0,110,13.38,8.71,170.0
"2009-01-31 00:15:30",587906,8.28,208.5,6.133,1.111,11.45,103.3823,7.935,9,24.41,0,110,13.38,8.71,170.5
"2009-01-31 00:16:00",587907,6.84,205.2,5.792,0.837,8.3,103.4047,7.992,8.8,23.93,0,110,13.38,8.77,167.2
"2009-01-31 00:16:30",587908,6.57,208.2,5.406,0.615,8.95,103.4242,8.04,8.97,23.53,0,110,13.38,8.82,170.2
"2009-01-31 00:17:00",587909,8.16,213.3,7.195,1.25,11.43,103.4504,8.11,9.09,23.97,0,110,13.38,8.89,175.3
"2009-01-31 00:17:30",587910,7.931,216.2,6.874,1.142,11.5,103.4553,8.12,9.12,23.8,0,110,13.38,8.90,178.2
"2009-01-31 00:18:00",587911,7.959,219.5,6.763,1.438,12.08,103.4671,8.15,9.2,23.61,0,110,13.38,8.93,181.5
"2009-01-31 00:18:30",587912,7.302,222.9,11.34,1.325,11.28,103.488,8.2,9.17,23.34,0,110,13.38,8.99,184.9
"2009-01-31 00:19:00",587913,6.206,213.3,5.159,0.849,8.96,103.5035,8.24,9.06,23.08,0,110,13.38,9.03,175.3
"2009-01-31 00:19:30",587914,7.013,211,6.211,1.307,8.98,103.523,8.29,9.18,23.18,0,110,13.38,9.08,173.0
"2009-01-31 00:20:00",587915,8.73,218.4,7.077,1.119,11.9,103.523,8.29,9.33,23.55,0,110,13.38,9.08,180.4
"2009-01-31 00:20:30",587916,7.977,213.8,6.552,1.329,10.98,103.523,8.29,9.26,23.67,0,110,13.38,9.08,175.8
"2009-01-31 00:21:00",587917,8.18,219.5,6.16,1.153,12.09,103.523,8.29,9.36,23.61,0,110,13.38,9.08,181.5
"2009-01-31 00:21:30",587918,8.09,217.9,7.032,0.968,11.95,103.523,8.29,9.3,23.34,0,110,13.38,9.08,179.9
"2009-01-31 00:22:00",587919,6.95,215.8,4.986,0.901,9.39,103.523,8.29,9.27,23.12,0,110,13.38,9.08,177.8
"2009-01-31 00:22:30",587920,6.807,214.5,3.84,0.963,8.76,103.523,8.29,9.26,23.1,0,110,13.38,9.08,176.5
"2009-01-31 00:23:00",587921,8.6,223.7,7.465,1.269,11.64,103.523,8.29,9.35,23.24,0,110,13.38,9.08,185.7
"2009-01-31 00:23:30",587922,8.08,220.2,6.654,1.354,11.46,103.5233,8.3,9.41,23.37,0,110,13.38,9.08,182.2
"2009-01-31 00:24:00",587923,8.88,224.1,7.113,1.168,11.21,103.523,8.29,9.35,23.34,0,110,13.38,9.08,186.1
"2009-01-31 00:24:30",587924,8.25,225.1,10.46,1.266,11.28,103.523,8.29,9.43,23.42,0,110,13.38,9.08,187.1
"2009-01-31 00:25:00",587925,7.432,229.3,7.401,1.48,9.97,103.523,8.29,9.2,23.25,0,110,13.38,9.08,191.3
"2009-01-31 00:25:30",587926,6.996,229.2,7.979,0.911,9.59,103.523,8.29,9.32,23.17,0,110,13.38,9.08,191.2
"2009-01-31 00:26:00",587927,9.13,232.1,8.81,1.251,11.99,103.523,8.29,9.43,23.41,0,110,13.38,9.08,194.1
"2009-01-31 00:26:30",587928,8.14,225.6,6.61,1.339,9.91,103.5233,8.3,9.34,23.39,0,110,13.39,9.08,187.6
"2009-01-31 00:27:00",587929,7.879,234.5,12.78,1.23,11.44,103.523,8.29,9.41,23.5,0,110,13.39,9.08,196.5
"2009-01-31 00:27:30",587930,7.916,243.9,6.523,1.368,11.94,103.5242,8.3,9.44,23.06,0,110,13.39,9.08,205.9
"2009-01-31 00:28:00",587931,6.751,228.9,7.431,1.301,9.58,103.528,8.31,9.25,22.76,0,110,13.39,9.09,190.9
"2009-01-31 00:28:30",587932,7.796,229.9,7.106,1.224,11.38,103.545,8.35,9.36,22.91,0,110,13.39,9.13,191.9
"2009-01-31 00:29:00",587933,8.35,231,5.21,1.182,12.04,103.5597,8.39,9.46,23.05,0,110,13.39,9.17,193.0
"2009-01-31 00:29:30",587934,8.26,228.9,6.343,1.285,10.95,103.566,8.4,9.38,22.89,0,110,13.39,9.19,190.9
"2009-01-31 00:30:00",587935,7.23,226.7,8.34,0.942,9.98,103.568,8.41,9.44,22.86,0,110,13.39,9.19,188.7
"2009-01-31 00:30:30",587936,8.42,238.8,5.485,1.327,12.42,103.5712,8.42,9.5,22.73,0,110,13.39,9.20,200.8
"2009-01-31 00:31:00",587937,8.34,233.4,5.897,1.05,11.64,103.5744,8.43,9.44,22.9,0,110,13.4,9.21,195.4
"2009-01-31 00:31:30",587938,8.91,235.9,6.747,1.445,11.57,103.5782,8.44,9.51,22.91,0,110,13.4,9.22,197.9
"2009-01-31 00:32:00",587939,8.42,239.5,10.06,1.227,11.21,103.58,8.44,9.54,23.13,0,110,13.4,9.22,201.5
"2009-01-31 00:32:30",587940,7.351,235.4,8.65,1.519,9.72,103.5824,8.45,9.39,22.93,0,110,13.4,9.23,197.4
"2009-01-31 00:33:00",587941,8.1,229.1,7.111,1.418,10.34,103.5853,8.45,9.41,22.95,0,110,13.4,9.24,191.1
"2009-01-31 00:33:30",587942,8.44,231.8,8,1.238,11.14,103.5864,8.46,9.54,23.12,0,110,13.4,9.24,193.8
"2009-01-31 00:34:00",587943,8.94,229.1,6.435,1.316,12,103.5847,8.45,9.55,23.32,0,110,13.4,9.23,191.1
"2009-01-31 00:34:30",587944,10.16,231.3,4.153,0.693,12.9,103.5634,8.4,9.62,23.6,0,110,13.4,9.18,193.3
"2009-01-31 00:35:00",587945,9.61,226.8,6.552,1.228,11.7,103.5566,8.38,9.54,23.67,0,110,13.4,9.16,188.8
"2009-01-31 00:35:30",587946,9.33,221.2,8.15,1.146,10.01,103.5406,8.34,9.29,23.66,0,110,13.4,9.12,183.2
"2009-01-31 00:36:00",587947,8.6,221.1,8.87,0.961,9.83,103.5239,8.3,9.36,23.87,0,110,13.4,9.08,183.1
"2009-01-31 00:36:30",587948,8.79,230.5,7.735,1.268,11.1,103.522,8.29,9.37,23.52,0,110,13.39,9.07,192.5
"2009-01-31 00:37:00",587949,8.63,230.9,6.62,1.399,11.72,103.5211,8.29,9.44,23.53,0,110,13.39,9.07,192.9
"2009-01-31 00:37:30",587950,9.52,232.2,4.598,1.039,12.98,103.5211,8.29,9.46,23.58,0,110,13.39,9.07,194.2
"2009-01-31 00:38:00",587951,9.15,230.7,7.613,1.186,12.03,103.5174,8.28,9.39,23.52,0,110,13.39,9.06,192.7
"2009-01-31 00:38:30",587952,9.08,222.4,6.825,0.939,9.85,103.5064,8.25,9.34,23.87,0,110,13.39,9.03,184.4
"2009-01-31 00:39:00",587953,9.27,219,6.918,1.065,9.22,103.4903,8.21,9.19,24.26,0,110,13.39,8.99,181.0
"2009-01-31 00:39:30",587954,9.81,223.1,6.004,1.247,11.2,103.4678,8.15,9.31,24.67,0,110,13.39,8.93,185.1
"2009-01-31 00:40:00",587955,10.15,223,6.8,1.146,11.82,103.4469,8.1,9.3,24.84,0,110,13.39,8.88,185.0
"2009-01-31 00:40:30",587956,10.24,231.1,5.713,0.889,12.78,103.4226,8.04,9.3,24.71,0,110,13.39,8.82,193.1
"2009-01-31 00:41:00",587957,10.09,231.6,6.584,0.93,12.45,103.4226,8.04,9.3,24.65,0,110,13.4,8.82,193.6
"2009-01-31 00:41:30",587958,8.63,232,7.094,1.195,10.74,103.4149,8.02,9.17,24.49,0,110,13.4,8.80,194.0
"2009-01-31 00:42:00",587959,8.86,226.9,5.746,1.324,10.22,103.4093,8,9.09,24.33,0,110,13.4,8.78,188.9
"2009-01-31 00:42:30",587960,8.75,228.1,6.742,0.873,9.88,103.4124,8.01,9.07,24.32,0,110,13.4,8.79,190.1
"2009-01-31 00:43:00",587961,8.75,233.7,6.752,1.222,11.08,103.4155,8.02,9.16,24.46,0,109.9,13.4,8.80,195.7
"2009-01-31 00:43:30",587962,9.73,239.7,4.541,0.918,12.57,103.4226,8.04,9.21,24.61,0,110,13.4,8.82,201.7
"2009-01-31 00:44:00",587963,9.27,241.3,5.444,0.96,12.95,103.4226,8.04,9.24,24.58,0,110,13.4,8.82,203.3
"2009-01-31 00:44:30",587964,8.49,241.2,6.007,1.221,11.49,103.4226,8.04,9.12,24.29,0,110,13.4,8.82,203.2
"2009-01-31 00:45:00",587965,7.301,239.3,5.88,1.151,10.1,103.4251,8.04,9.09,24.4,0,110,13.4,8.82,201.3
"2009-01-31 00:45:30",587966,7.102,235.3,5.273,0.979,9.15,103.4454,8.1,9.08,24.41,0,110,13.4,8.88,197.3
"2009-01-31 00:46:00",587967,6.973,236.4,4.981,0.949,9.17,103.4562,8.12,8.99,24.33,0,110,13.4,8.90,198.4
"2009-01-31 00:46:30",587968,8.94,246.5,4.778,0.837,12.79,103.4565,8.12,9.21,24.64,0,110,13.41,8.90,208.5
"2009-01-31 00:47:00",587969,8.8,245.8,3.299,0.892,12.9,103.4565,8.12,9.33,24.74,0,110,13.41,8.90,207.8
"2009-01-31 00:47:30",587970,8.46,244,5.186,1.152,12.1,103.4565,8.12,9.23,24.69,0,110,13.41,8.90,206.0
"2009-01-31 00:48:00",587971,7.123,236.7,4.666,0.858,8.71,103.4565,8.12,9.13,24.74,0,110,13.41,8.90,198.7
"2009-01-31 00:48:30",587972,8.02,240.4,6.896,1.008,9.4,103.4565,8.12,9.07,24.79,0,110,13.41,8.90,202.4
"2009-01-31 00:49:00",587973,7.781,236.6,4.702,0.827,8.81,103.4567,8.12,9.13,25.07,0,110,13.41,8.91,198.6
"2009-01-31 00:49:30",587974,8.67,239,6.161,1.137,10.94,103.446,8.1,9.24,25.27,0,110,13.41,8.88,201.0
"2009-01-31 00:50:00",587975,8.99,244.8,2.426,0.813,12.92,103.4299,8.06,9.34,25.25,0,110,13.41,8.84,206.8
"2009-01-31 00:50:30",587976,8.31,243.4,5.101,1.153,11.66,103.4229,8.04,9.23,25.23,0,110,13.41,8.82,205.4
"2009-01-31 00:51:00",587977,6.978,238.5,5.23,0.945,9.07,103.4234,8.04,9.15,25.01,0,110,13.41,8.82,200.5
"2009-01-31 00:51:30",587978,7.578,239.9,7.494,1.179,9.56,103.4243,8.04,9.04,25.01,0,110,13.41,8.82,201.9
"2009-01-31 00:52:00",587979,7.012,235.2,4.449,0.875,8.86,103.4234,8.04,9.11,25.16,0,110,13.41,8.82,197.2
"2009-01-31 00:52:30",587980,7.666,242.5,8.27,1.253,10.8,103.4237,8.04,9.25,25.34,0,110,13.41,8.82,204.5
"2009-01-31 00:53:00",587981,8.63,256.2,6.063,1.099,12.74,103.4269,8.05,9.31,25.36,0,110,13.41,8.83,218.2
"2009-01-31 00:53:30",587982,8.15,255.8,6.588,1.32,11.59,103.4252,8.04,9.25,25.28,0,110,13.41,8.82,217.8
"2009-01-31 00:54:00",587983,8.17,254,6.871,1.283,10.53,103.4272,8.05,9.08,25.19,0,109.9,13.4,8.83,216.0
"2009-01-31 00:54:30",587984,7.91,253.6,9.41,1.525,10.05,103.4304,8.06,9.14,25.29,0,109.9,13.41,8.84,215.6
"2009-01-31 00:55:00",587985,6.998,253.3,2.531,0.239,8.3,103.4322,8.06,9,25.16,0,110,13.44,8.84,215.3
"2009-01-31 00:55:30",587986,8.29,261.5,8.86,1.346,11.4,103.4328,8.06,9.2,25.41,0,109.9,13.4,8.84,223.5
"2009-01-31 00:56:00",587987,7.942,262.8,6.331,1.262,11.32,103.4445,8.09,9.3,25.45,0,109.9,13.41,8.87,224.8
"2009-01-31 00:56:30",587988,8.54,264.8,6.141,1.265,11.75,103.4575,8.13,9.23,25.45,0,110,13.41,8.91,226.8
"2009-01-31 00:57:00",587989,7.857,261.7,6.246,1.27,10.24,103.4618,8.14,9.21,25.54,0,109.9,13.41,8.92,223.7
"2009-01-31 00:57:30",587990,7.42,259.6,7.399,1.2,9.63,103.4562,8.12,9.17,25.56,0,109.9,13.41,8.90,221.6
"2009-01-31 00:58:00",587991,7.102,257.5,5.268,1.163,8.83,103.4455,8.1,9.07,25.53,0,109.9,13.41,8.88,219.5
"2009-01-31 00:58:30",587992,7.723,259.6,6.518,1.334,10.68,103.4439,8.09,9.15,25.73,0,109.9,13.41,8.87,221.6
"2009-01-31 00:59:00",587993,7.51,258.4,6.729,1.307,10.92,103.4448,8.09,9.32,26,0,109.9,13.41,8.87,220.4
"2009-01-31 00:59:30",587994,8.29,263.6,5.607,1.176,11.59,103.4431,8.09,9.2,25.96,0,109.9,13.41,8.87,225.6
"2009-01-31 01:00:00",587995,7.013,259.3,6.025,1.077,9.47,103.4316,8.06,9.17,25.98,0,109.9,13.41,8.84,221.3
"2009-01-31 01:00:30",587996,7.124,261.6,6.274,1.133,9.27,103.4286,8.05,9.02,25.85,0,110,13.41,8.83,223.6
"2009-01-31 01:01:00",587997,7.731,265.9,6.458,1.207,10.92,103.4195,8.03,9.16,26.02,0,109.9,13.42,8.81,227.9
"2009-01-31 01:01:30",587998,6.708,260.3,6.196,1.195,9.2,103.4193,8.03,9.01,25.91,0,109.9,13.42,8.81,222.3
"2009-01-31 01:02:00",587999,7.603,264.2,6.633,1.254,10.94,103.4211,8.03,9.07,25.99,0,109.9,13.42,8.81,226.2
"2009-01-31 01:02:30",588000,7.064,264.9,6.43,1.2,10.76,103.4208,8.03,9.17,26.11,0,109.9,13.42,8.81,226.9
"2009-01-31 01:03:00",588001,6.885,268.2,6.396,1.311,9.85,103.4214,8.03,8.97,25.87,0,109.9,13.42,8.81,230.2
"2009-01-31 01:03:30",588002,6.992,270.3,6.088,1.2,9.71,103.4169,8.02,9.1,25.97,0,109.9,13.42,8.80,232.3
"2009-01-31 01:04:00",588003,6.949,271.2,5.713,1.086,8.82,103.4062,7.996,8.97,25.86,0,110,13.42,8.78,233.2
"2009-01-31 01:04:30",588004,7.053,275.3,6.004,1.211,9.68,103.3904,7.955,9.1,25.83,0,109.9,13.42,8.74,237.3
"2009-01-31 01:05:00",588005,8.05,278.5,6.601,1.236,10.4,103.3898,7.954,9.09,25.95,0,109.9,13.42,8.73,240.5
"2009-01-31 01:05:30",588006,8.07,281.2,6.718,1.275,10.81,103.3898,7.954,9.08,26.06,0,109.9,13.42,8.73,243.2
"2009-01-31 01:06:00",588007,7.942,284.9,6.628,1.21,11.22,103.3895,7.953,9.05,26.05,0,109.9,13.42,8.73,246.9
"2009-01-31 01:06:30",588008,7.544,282.3,6.132,1.244,8.98,103.3839,7.939,8.9,26.06,0,109.9,13.42,8.72,244.3
"2009-01-31 01:07:00",588009,7.127,283.1,5.848,1.137,9.16,103.3607,7.88,8.96,26.18,0,109.9,13.42,8.66,245.1
"2009-01-31 01:07:30",588010,8.31,289.2,6.137,1.176,11.86,103.3559,7.867,9.01,26.31,0,109.9,13.42,8.65,251.2
"2009-01-31 01:08:00",588011,7.512,287.3,6.891,1.205,10.25,103.3562,7.868,8.97,26.27,0,109.9,13.42,8.65,249.3
"2009-01-31 01:08:30",588012,7.101,286.5,6.104,1.172,9.55,103.3559,7.867,9.01,26.37,0,109.9,13.42,8.65,248.5
"2009-01-31 01:09:00",588013,6.857,287.6,6.005,1.068,8.88,103.3559,7.867,8.91,26.16,0,109.9,13.42,8.65,249.6
"2009-01-31 01:09:30",588014,7.394,291.4,6.472,1.201,10.51,103.3559,7.867,8.98,26.2,0,109.9,13.42,8.65,253.4
"2009-01-31 01:10:00",588015,6.944,290.9,6.911,1.304,9.28,103.3491,7.85,8.78,26.01,0,109.9,13.41,8.63,252.9
"2009-01-31 01:10:30",588016,7.414,296.5,6.168,1.233,10.71,103.3249,7.788,8.96,26.31,0,109.9,13.41,8.57,258.5
"2009-01-31 01:11:00",588017,7.324,298,6.117,1.25,10.69,103.3215,7.779,8.96,26.47,0,109.9,13.41,8.56,260.0
"2009-01-31 01:11:30",588018,6.588,294.9,5.872,1.263,8.73,103.3017,7.729,8.69,26.33,0,109.9,13.41,8.51,256.9
"2009-01-31 01:12:00",588019,6.256,295.3,5.913,1.139,8.58,103.2881,7.694,8.77,26.53,0,109.9,13.41,8.47,257.3
"2009-01-31 01:12:30",588020,6.515,298.3,6.184,1.234,9.78,103.2842,7.684,8.83,26.64,0,109.9,13.42,8.46,260.3
"2009-01-31 01:13:00",588021,6.298,295.1,6.481,1.14,9.23,103.2686,7.644,8.74,26.58,0,109.9,13.42,8.42,257.1
"2009-01-31 01:13:30",588022,7.465,298.9,5.818,1.116,11.3,103.2641,7.633,8.84,26.69,0,109.9,13.42,8.41,260.9
"2009-01-31 01:14:00",588023,7.32,296.7,6.3,1.218,10.97,103.2751,7.661,8.76,26.77,0,109.9,13.42,8.44,258.7
"2009-01-31 01:14:30",588024,6.31,291.1,5.268,1.083,8.54,103.2862,7.689,8.62,26.68,0,109.9,13.43,8.47,253.1
"2009-01-31 01:15:00",588025,6.6,292.3,6.625,1.211,9.87,103.2881,7.694,8.85,26.78,0,109.9,13.43,8.47,254.3
"2009-01-31 01:15:30",588026,7.21,291.4,6.629,1.258,9.6,103.2881,7.694,8.63,26.21,0,109.9,13.43,8.47,253.4
"2009-01-31 01:16:00",588027,7.806,294.1,6.019,1.107,11.32,103.3028,7.732,8.79,26.25,0,109.9,13.43,8.51,256.1
"2009-01-31 01:16:30",588028,7.576,292.3,6.1,1.187,10.91,103.3189,7.773,8.78,26.42,0,109.9,13.43,8.55,254.3
"2009-01-31 01:17:00",588029,7.206,291.5,6.394,1.232,10.97,103.322,7.781,8.89,26.58,0,109.9,13.43,8.56,253.5
"2009-01-31 01:17:30",588030,6.609,287.7,6.117,1.232,9.05,103.322,7.781,8.67,26.44,0,109.9,13.43,8.56,249.7
"2009-01-31 01:18:00",588031,6.704,290.1,6.552,1.271,9.46,103.322,7.781,8.8,26.66,0,109.9,13.43,8.56,252.1
"2009-01-31 01:18:30",588032,5.928,286.3,4.918,0.871,8.43,103.322,7.781,8.82,26.9,0,109.9,13.43,8.56,248.3
"2009-01-31 01:19:00",588033,7.305,293.5,6.061,1.104,10.89,103.322,7.781,8.84,26.63,0,109.9,13.43,8.56,255.5
"2009-01-31 01:19:30",588034,7.195,294.1,5.877,1.272,11.11,103.322,7.781,8.86,26.24,0,109.9,13.43,8.56,256.1
"2009-01-31 01:20:00",588035,7.706,295.9,4.734,0.885,11.71,103.3223,7.781,8.87,26.26,0,109.9,13.43,8.56,257.9
"2009-01-31 01:20:30",588036,6.671,290.7,6.335,1.329,9.99,103.322,7.781,8.81,26.19,0,109.9,13.43,8.56,252.7
"2009-01-31 01:21:00",588037,5.643,289.5,6.358,0.992,8.48,103.3223,7.781,8.86,26.52,0,109.9,13.43,8.56,251.5
"2009-01-31 01:21:30",588038,5.376,287.1,0.996,0.08,7.268,103.322,7.781,8.68,26.31,0,109.9,13.46,8.56,249.1
"2009-01-31 01:22:00",588039,6.677,294.1,5.778,1.327,10.29,103.322,7.781,8.95,26.33,0,109.9,13.43,8.56,256.1
"2009-01-31 01:22:30",588040,7.629,295.9,4.944,1.051,11.99,103.3232,7.784,8.93,25.38,0,109.9,13.43,8.56,257.9
"2009-01-31 01:23:00",588041,7.323,294.4,6.113,1.136,11.33,103.3314,7.805,8.92,24.76,0,109.9,13.43,8.58,256.4
"2009-01-31 01:23:30",588042,6.573,292.8,6.752,1.291,10.96,103.3348,7.813,9,25.97,0,109.9,13.43,8.59,254.8
"2009-01-31 01:24:00",588043,5.696,288.3,5.191,1.044,8.01,103.3269,7.793,8.74,26.25,0,109.9,13.43,8.57,250.3
"2009-01-31 01:24:30",588044,5.148,285.6,0.921,0.099,7.217,103.3238,7.785,8.74,26.36,0,109.9,13.46,8.56,247.6
"2009-01-31 01:25:00",588045,6.101,289.4,7.144,1.258,9.19,103.3244,7.787,8.87,26.28,0,109.9,13.43,8.57,251.4
"2009-01-31 01:25:30",588046,6.858,293.9,6.587,1.132,10.72,103.3247,7.787,8.9,26.26,0,109.9,13.43,8.57,255.9
"2009-01-31 01:26:00",588047,6.864,294.9,6.207,1.112,11.69,103.3267,7.793,8.95,26.13,0,109.9,13.43,8.57,256.9
"2009-01-31 01:26:30",588048,6.62,296.6,6.322,1.22,10.88,103.325,7.788,8.92,26.22,0,109.9,13.43,8.57,258.6
"2009-01-31 01:27:00",588049,6.415,294.2,7.48,1.196,9.21,103.3248,7.788,8.71,25.22,0,109.9,13.43,8.57,256.2
"2009-01-31 01:27:30",588050,5.309,289.7,3.967,0.641,7.779,103.3273,7.794,8.82,24.85,0,109.9,13.43,8.57,251.7
"2009-01-31 01:28:00",588051,5.626,289.1,3.22,0.801,7.412,103.3273,7.794,8.67,24.71,0,109.9,13.43,8.57,251.1
"2009-01-31 01:28:30",588052,6.096,292.8,5.69,1.197,9.23,103.3285,7.797,8.84,24.79,0,109.9,13.43,8.58,254.8
"2009-01-31 01:29:00",588053,6.484,297.1,6.666,1.294,10.98,103.3293,7.799,8.97,25.71,0,109.9,13.43,8.58,259.1
"2009-01-31 01:29:30",588054,6.801,301.8,5.473,0.97,11.76,103.3265,7.792,8.93,26.73,0,109.9,13.43,8.57,263.8
"2009-01-31 01:30:00",588055,5.593,296.3,6.236,1.245,9.01,103.3082,7.745,8.74,26.71,0,109.9,13.43,8.52,258.3
"2009-01-31 01:30:30",588056,5.59,296.7,6.087,1.185,9.08,103.2978,7.719,8.83,26.74,0,109.9,13.43,8.50,258.7
"2009-01-31 01:31:00",588057,4.673,291.3,1.105,0.059,7.009,103.2995,7.723,8.64,26.38,0,109.9,13.47,8.50,253.3
"2009-01-31 01:31:30",588058,5.907,296.3,6.516,1.25,9.42,103.3021,7.73,8.72,25.96,0,109.9,13.44,8.51,258.3
"2009-01-31 01:32:00",588059,6.46,300,6.225,1.141,11.23,103.3007,7.726,8.87,26.04,0,109.9,13.44,8.51,262.0
"2009-01-31 01:32:30",588060,6.484,301.5,5.93,1.181,11.37,103.3036,7.733,8.87,26.5,0,109.9,13.44,8.51,263.5
"2009-01-31 01:33:00",588061,6.667,301.7,5.604,1.096,11.19,103.3036,7.734,8.83,26.62,0,109.9,13.44,8.51,263.7
"2009-01-31 01:33:30",588062,6.009,296.6,6.441,1.271,9.6,103.2971,7.717,8.77,26.12,0,109.9,13.44,8.50,258.6
"2009-01-31 01:34:00",588063,4.774,288.4,1.869,0.094,7.088,103.2976,7.718,8.59,25.78,0,109.9,13.47,8.50,250.4
"2009-01-31 01:34:30",588064,4.661,289.9,1.318,0.057,7.159,103.2834,7.682,8.59,26.03,0,109.9,13.48,8.46,251.9
"2009-01-31 01:35:00",588065,5.739,295.1,6.8,1.205,10.19,103.2752,7.661,8.85,26.14,0,109.9,13.44,8.44,257.1
"2009-01-31 01:35:30",588066,6.546,300.8,4.964,1.052,11.99,103.2776,7.667,8.83,26.3,0,109.9,13.44,8.45,262.8
"2009-01-31 01:36:00",588067,6.249,298.1,6.438,1.206,11.19,103.2776,7.667,8.82,26.23,0,109.9,13.44,8.45,260.1
"2009-01-31 01:36:30",588068,6.214,300.2,6.777,1.237,10.66,103.2785,7.669,8.73,25.87,0,109.9,13.44,8.45,262.2
"2009-01-31 01:37:00",588069,4.676,293.9,2.388,0.666,6.918,103.2796,7.672,8.56,25.74,0,109.9,13.44,8.45,255.9
"2009-01-31 01:37:30",588070,4.348,294.9,0.54,0.06,6.82,103.2802,7.674,8.53,25.92,0,109.9,13.48,8.45,256.9
"2009-01-31 01:38:00",588071,4.534,297.1,4.591,0.796,8.1,103.2822,7.679,8.71,26.3,0,109.9,13.44,8.46,259.1
"2009-01-31 01:38:30",588072,6.114,303.5,6.055,1.216,11.21,103.2857,7.688,8.77,26.1,0,109.9,13.44,8.47,265.5
"2009-01-31 01:39:00",588073,6.119,302.4,6.525,1.199,11.38,103.2875,7.692,8.83,25.8,0,109.9,13.44,8.47,264.4
"2009-01-31 01:39:30",588074,6.117,306.1,4.808,0.971,11.69,103.2884,7.695,8.79,26.9,0,109.9,13.44,8.47,268.1
"2009-01-31 01:40:00",588075,5.146,300.8,6.434,1.268,9.57,103.2816,7.677,8.65,27.23,0,109.9,13.44,8.46,262.8
"2009-01-31 01:40:30",588076,4.028,293.5,0.743,0.084,6.918,103.2581,7.617,8.51,26.81,0,109.9,13.48,8.40,255.5
"2009-01-31 01:41:00",588077,4.222,291.9,0.711,0.147,7.024,103.2542,7.607,8.5,26.45,0,109.9,13.48,8.39,253.9
"2009-01-31 01:41:30",588078,5.836,300.1,8.63,1.286,9.91,103.2539,7.606,8.71,25.99,0,109.9,13.44,8.39,262.1
"2009-01-31 01:42:00",588079,6.333,301.3,5.671,1.235,11.37,103.259,7.62,8.75,25.83,0,109.9,13.44,8.40,263.3
"2009-01-31 01:42:30",588080,6.732,304.9,4.325,0.899,12.08,103.2791,7.671,8.79,25.94,0,109.9,13.44,8.45,266.9
"2009-01-31 01:43:00",588081,6.091,301,7.061,1.22,10.6,103.2853,7.687,8.75,25.99,0,109.9,13.44,8.47,263.0
"2009-01-31 01:43:30",588082,6.124,295.2,7.796,1.388,9.5,103.2893,7.697,8.62,25.71,0,109.9,13.44,8.48,257.2
"2009-01-31 01:44:00",588083,4.742,287.4,2.467,0.172,6.89,103.2893,7.697,8.52,25.82,0,109.9,13.47,8.48,249.4
"2009-01-31 01:44:30",588084,5.082,287.5,1.286,0.223,7.302,103.2893,7.697,8.53,25.36,0,109.9,13.44,8.48,249.5
"2009-01-31 01:45:00",588085,7.261,296.9,6.059,0.986,11.43,103.2893,7.697,8.75,25.6,0,109.9,13.44,8.48,258.9
"2009-01-31 01:45:30",588086,7.325,297.5,5.49,1.017,11.96,103.2893,7.697,8.84,24.86,0,109.9,13.44,8.48,259.5
"2009-01-31 01:46:00",588087,7.085,297.1,5.536,1.225,11.51,103.2969,7.716,8.82,24.76,0,109.9,13.44,8.50,259.1
"2009-01-31 01:46:30",588088,6.717,294,7.568,1.178,9.88,103.3215,7.779,8.68,24.28,0,109.9,13.44,8.56,256.0
"2009-01-31 01:47:00",588089,5.49,285.7,1.382,0.122,7.235,103.3232,7.783,8.59,23.9,0,109.9,13.48,8.56,247.7
"2009-01-31 01:47:30",588090,5.34,287.1,0.649,0.115,7.239,103.326,7.791,8.61,23.83,0,109.9,13.48,8.57,249.1
"2009-01-31 01:48:00",588091,7.231,297.3,5.876,1.208,11.08,103.3311,7.804,8.79,24.15,0,109.9,13.45,8.58,259.3
"2009-01-31 01:48:30",588092,7.028,298.4,6.061,1.207,11.48,103.3234,7.784,8.87,24.68,0,109.9,13.45,8.56,260.4
"2009-01-31 01:49:00",588093,6.915,301.2,4.996,1.089,11.82,103.3229,7.783,8.95,26.05,0,109.9,13.45,8.56,263.2
"2009-01-31 01:49:30",588094,6.475,302.9,6.552,1.1,10.57,103.3054,7.738,8.86,26.29,0,109.9,13.45,8.52,264.9
"2009-01-31 01:50:00",588095,5.946,296.8,5.948,1.108,8.57,103.2893,7.697,8.71,24.95,0,109.9,13.45,8.48,258.8
"2009-01-31 01:50:30",588096,5.388,293.7,0.884,0.128,6.948,103.2893,7.697,8.58,24.57,0,109.9,13.48,8.48,255.7
"2009-01-31 01:51:00",588097,6.378,301.1,7.094,1.359,9.72,103.289,7.696,8.77,24.32,0,109.9,13.45,8.48,263.1
"2009-01-31 01:51:30",588098,6.957,303.1,5.87,1.226,10.93,103.2859,7.688,8.72,23.2,0,109.9,13.45,8.47,265.1
"2009-01-31 01:52:00",588099,7.103,305.8,5.32,0.953,12.25,103.2844,7.685,8.87,23.08,0,109.9,13.46,8.46,267.8